Skagway, AK

4:12 PM AKDT on June 22, 2017 (GMT -0800)
Skagway

Weather History for PAGY - September, 2013

Change the Weather History Date:

Saturday, September 7, 2013

  Actual Average Record
Temperature  
Mean Temperature 64 °F -  
Max Temperature 66 °F 55 °F 69 °F (1986)
Min Temperature 59 °F 44 °F 38 °F (1988)
Degree Days  
Heating Degree Days 2    
Growing Degree Days 14 (Base 50)    
Moisture  
Dew Point 55 °F    
Average Humidity 76    
Maximum Humidity 93    
Minimum Humidity 68    
Precipitation  
Precipitation 0.15 in - - ()
Sea Level Pressure  
Sea Level Pressure 29.82 in    
Wind  
Wind Speed 21 mph (SSW)    
Max Wind Speed 26 mph    
Max Gust Speed 39 mph    
Visibility 10 miles    
Events Rain    
Averages and records for this station are not official NWS values.
T = Trace of Precipitation, MM = Missing Value Source: NWS Daily Summary

Daily Weather History Graph

Daily Weather History Graph

Search for Another Location

Airport or City:

Trip Planner

Search our weather history database for the weather conditions in past years. The results will help you decide how hot, cold, wet, or windy it might be!

Date:

Astronomy

Sep. 07, 2013 Rise Set
Actual Time 6:12 AM AKDT 7:44 PM AKDT
Civil Twilight 5:29 AM AKDT 8:26 PM AKDT
Nautical Twilight 4:35 AM AKDT 9:20 PM AKDT
Astronomical Twilight 3:31 AM AKDT 10:23 PM AKDT
Moon 9:22 AM AKDT (9/7) 7:53 PM AKDT (9/7)
Length of Visible Light 14h 57m
Length of Day
13h 31m
Waxing Crescent, 6% of the Moon is Illuminated
Sep 7
Waxing Crescent
Sep 12
First Quarter
Sep 19
Full
Sep 26
Last Quarter
Oct 4
New

Hourly Weather History & Observations

Time (AKDT) Temp. Dew Point Humidity Pressure Visibility Wind Dir Wind Speed Gust Speed Precip Events Conditions
12:53 AM 63.0 °F 54.0 °F 72% 29.92 in 10.0 mi SSW 21.9 mph 36.8 mph N/A   Overcast
1:53 AM 62.1 °F 54.0 °F 75% 29.94 in 10.0 mi SSW 20.7 mph 32.2 mph 0.00 in Rain Light Rain
2:53 AM 62.1 °F 54.0 °F 75% 29.93 in 10.0 mi SSW 24.2 mph 32.2 mph 0.00 in Rain Light Rain
3:53 AM 62.1 °F 54.0 °F 75% 29.92 in 10.0 mi SSW 24.2 mph 31.1 mph 0.00 in Rain Light Rain
4:53 AM 61.0 °F 54.0 °F 78% 29.91 in 10.0 mi SSW 26.5 mph 39.1 mph 0.00 in   Overcast
5:53 AM 62.1 °F 54.0 °F 75% 29.90 in 10.0 mi SSW 19.6 mph 31.1 mph N/A   Mostly Cloudy
6:53 AM 62.1 °F 54.0 °F 75% 29.89 in 10.0 mi SSW 21.9 mph 31.1 mph N/A   Overcast
7:53 AM 62.1 °F 54.0 °F 75% 29.87 in 10.0 mi SSW 21.9 mph 31.1 mph N/A   Overcast
8:53 AM 62.1 °F 55.0 °F 78% 29.87 in 10.0 mi SSW 20.7 mph 34.5 mph N/A   Overcast
9:53 AM 62.1 °F 54.0 °F 75% 29.87 in 10.0 mi SSW 18.4 mph 28.8 mph N/A   Overcast
10:53 AM 63.0 °F 54.0 °F 72% 29.85 in 10.0 mi SSW 23.0 mph 32.2 mph N/A   Overcast
11:53 AM 62.1 °F 55.0 °F 78% 29.85 in 10.0 mi SSW 24.2 mph 32.2 mph 0.00 in Rain Light Rain
12:53 PM 63.0 °F 55.0 °F 75% 29.84 in 10.0 mi SSW 26.5 mph 38.0 mph 0.00 in   Overcast
1:53 PM 62.1 °F 54.0 °F 75% 29.84 in 10.0 mi SSW 20.7 mph 32.2 mph N/A   Overcast
2:53 PM 63.0 °F 55.0 °F 75% 29.82 in 10.0 mi South 18.4 mph 29.9 mph 0.00 in Rain Light Rain
3:53 PM 64.0 °F 55.0 °F 73% 29.81 in 10.0 mi South 15.0 mph 26.5 mph 0.00 in   Overcast
4:53 PM 64.0 °F 55.0 °F 73% 29.78 in 10.0 mi SSW 17.3 mph 27.6 mph N/A   Overcast
5:53 PM 66.0 °F 55.0 °F 68% 29.75 in 10.0 mi SSW 17.3 mph 26.5 mph N/A   Overcast
6:53 PM 64.0 °F 54.0 °F 70% 29.73 in 10.0 mi SSW 23.0 mph 32.2 mph N/A   Overcast
7:53 PM 64.0 °F 55.0 °F 73% 29.70 in 10.0 mi SSW 23.0 mph 31.1 mph 0.00 in   Overcast
8:53 PM 64.9 °F 55.0 °F 70% 29.68 in 10.0 mi South 11.5 mph 21.9 mph N/A   Overcast
9:53 PM 62.1 °F 55.9 °F 80% 29.68 in 7.0 mi SSW 16.1 mph 24.2 mph 0.01 in Rain Light Rain
10:53 PM 61.0 °F 57.0 °F 87% 29.68 in 7.0 mi Variable 3.5 mph - 0.07 in Rain Rain
11:53 PM 59.0 °F 57.0 °F 93% 29.62 in 8.0 mi Calm Calm - 0.07 in Rain Light Rain